📊 Raw Sensor Data

Showing records 48376 to 48400 of 85,100 total

ID Distance (ft) Battery V Battery A Int Temp (°F) Int Humid (%) Ext Temp (°F) Solar V RSSI SNR Time Stamp
36737 -- 3.92 -5 36 40 39 0.00 -80 8 04/03/2025 03:30 AM
36736 -- 3.84 -5 36 40 38 0.00 -80 9 04/03/2025 03:16 AM
36735 -- 3.84 -5 37 40 38 0.00 -80 8 04/03/2025 03:00 AM
36734 -- 3.84 -5 37 41 39 0.00 -80 7 04/03/2025 02:46 AM
36733 -- 3.84 -5 37 41 39 0.00 -81 8 04/03/2025 02:30 AM
36732 -- 3.84 -5 37 41 38 0.00 -80 7 04/03/2025 02:15 AM
36731 14.9 3.85 -5 38 41 39 0.00 -80 7 04/03/2025 02:00 AM
36730 14.9 3.93 -5 38 42 40 0.00 -81 8 04/03/2025 01:45 AM
36729 -- 3.93 -5 39 42 41 0.00 -80 8 04/03/2025 01:30 AM
36728 -- 3.83 -5 40 42 40 0.00 -80 7 04/03/2025 01:15 AM
36727 -- 3.82 -5 41 42 42 0.10 -82 8 04/03/2025 01:00 AM
36726 -- 3.83 -5 43 41 43 0.00 -82 7 04/03/2025 12:45 AM
36725 -- 3.84 -5 45 41 46 0.00 -80 7 04/03/2025 12:30 AM
36724 -- 3.83 -5 45 41 47 0.10 -81 6 04/03/2025 12:15 AM
36723 -- 3.82 -5 46 41 47 0.00 -82 7 04/03/2025 12:00 AM
36722 -- 3.93 -5 46 41 48 0.00 -83 8 04/02/2025 11:45 PM
36721 -- 3.82 -5 46 41 48 0.10 -80 6 04/02/2025 11:30 PM
36720 -- 3.93 -5 47 41 48 0.00 -81 8 04/02/2025 11:15 PM
36719 -- 3.82 -5 47 41 49 0.00 -81 8 04/02/2025 11:00 PM
36718 -- 3.82 -5 48 41 49 0.00 -83 8 04/02/2025 10:46 PM
36717 -- 3.87 -5 48 41 50 0.00 -83 8 04/02/2025 10:30 PM
36716 14.9 3.94 -5 48 42 50 0.00 -83 9 04/02/2025 10:15 PM
36715 -- 3.87 -5 48 42 50 0.00 -82 7 04/02/2025 10:00 PM
36714 -- 3.94 -5 49 42 50 0.10 -84 8 04/02/2025 09:45 PM
36713 -- 3.86 -5 49 43 50 0.00 -84 8 04/02/2025 09:30 PM